Weather reports worldwide

Advertisment
Porto Colom, Spain (8309): temperature & dewpoint: 09.12.2019 00:00:00 - 15.12.2019 00:00:00 (CET)Porto Colom, Spain (8309): wind speed & gusts: 09.12.2019 00:00:00 - 15.12.2019 00:00:00 (CET)Porto Colom, Spain (8309): wind direction: 09.12.2019 00:00:00 - 15.12.2019 00:00:00 (CET)Porto Colom, Spain (8309): reduced air pressure: 09.12.2019 00:00:00 - 15.12.2019 00:00:00 (CET)Porto Colom, Spain (8309): visibility: 09.12.2019 00:00:00 - 15.12.2019 00:00:00 (CET)Porto Colom, Spain (8309): sunshine duration: 09.12.2019 00:00:00 - 15.12.2019 00:00:00 (CET)Porto Colom, Spain (8309): precipitation: 09.12.2019 00:00:00 - 15.12.2019 00:00:00 (CET)
Date & Time tt [°C] td [°C] ff [km/h] ff [kn] fx [km/h] fx [kn] dd ppp [hPa] vv [km] sd [min] rr [mm]
15.12.2019 00:00:00 - - - - - - - - - - -
14.12.2019 23:00:00 13,7 11,4 12 7 22 12 W 1015,9 17 0 0,0
14.12.2019 22:00:00 14,0 11,7 4 2 20 11 SSE 1016,0 14 0 0,0
14.12.2019 21:00:00 14,5 11,2 9 5 19 11 W 1016,0 20 0 0,0
14.12.2019 20:00:00 14,7 11,9 8 4 19 11 W 1016,0 15 0 0,0
14.12.2019 19:00:00 14,7 12,0 8 4 18 10 WSW 1015,4 11 0 -
14.12.2019 18:00:00 15,0 11,8 13 7 28 15 W 1014,9 16 0 0,0
14.12.2019 17:00:00 15,7 11,9 21 11 34 19 W 1014,6 20 6 0,0
14.12.2019 16:00:00 16,8 11,9 16 9 35 19 W 1014,4 19 57 0,0
14.12.2019 15:00:00 17,8 12,0 24 13 40 22 W 1014,5 20 60 0,0
14.12.2019 14:00:00 19,2 12,4 15 8 36 19 W 1014,3 20 60 0,0
14.12.2019 13:00:00 20,3 12,5 14 7 23 12 WSW 1014,5 11 60 -
14.12.2019 12:00:00 19,5 11,8 8 5 29 16 W 1014,9 16 60 0,0
14.12.2019 11:00:00 18,3 11,3 16 9 32 17 W 1014,6 20 60 0,0
14.12.2019 10:00:00 17,0 11,9 16 9 31 17 WSW 1014,1 14 60 0,0
14.12.2019 09:00:00 15,2 10,8 13 7 27 15 WNW 1013,1 18 44 0,0
14.12.2019 08:00:00 15,2 9,8 16 9 28 15 NW 1012,4 19 0 0,0
14.12.2019 07:00:00 14,9 11,3 17 9 37 20 WNW 1012,1 17 0 -
14.12.2019 06:00:00 15,7 10,6 26 14 39 21 W 1011,3 20 0 0,0
14.12.2019 05:00:00 16,1 10,2 17 9 45 25 WSW 1010,5 10 0 0,0
14.12.2019 04:00:00 17,1 9,8 9 5 27 14 NW 1009,7 13 0 0,0
14.12.2019 03:00:00 16,7 10,5 8 4 24 13 WNW 1009,3 15 0 0,0
14.12.2019 02:00:00 17,3 10,9 16 8 49 26 WNW 1009,4 16 0 0,0
14.12.2019 01:00:00 17,3 11,1 20 11 54 29 WNW 1008,9 20 0 -
14.12.2019 00:00:00 17,2 11,4 26 14 61 33 WNW 1008,4 20 0 0,0
13.12.2019 23:00:00 17,0 11,4 24 13 51 28 WNW 1008,1 16 0 0,0
13.12.2019 22:00:00 16,8 11,6 17 9 42 23 W 1008,8 13 0 0,0
13.12.2019 21:00:00 17,1 12,8 44 24 63 34 SSW 1008,0 8 0 0,0
13.12.2019 20:00:00 17,1 12,2 37 20 50 27 SSW 1006,8 8 0 0,0
13.12.2019 19:00:00 17,8 10,9 22 12 41 22 W 1006,7 13 0 -
13.12.2019 18:00:00 18,0 10,4 22 12 55 30 WNW 1005,5 18 0 0,0
13.12.2019 17:00:00 18,3 10,2 23 12 55 30 WNW 1004,6 20 0 0,0
13.12.2019 16:00:00 17,9 10,8 21 12 52 28 WNW 1004,2 14 0 0,0
13.12.2019 15:00:00 18,2 11,0 30 16 63 34 WNW 1003,5 18 0 0,0
13.12.2019 14:00:00 18,1 11,7 31 17 71 38 WNW 1003,1 14 0 0,0
13.12.2019 13:00:00 18,1 11,9 27 15 67 36 WNW 1003,8 17 0 -
13.12.2019 12:00:00 17,9 11,9 35 19 70 38 WNW 1003,7 16 8 0,0
13.12.2019 11:00:00 17,9 12,1 32 18 76 41 WNW 1004,0 19 27 0,0
13.12.2019 10:00:00 17,2 12,1 38 20 69 38 WNW 1003,5 17 0 0,0
13.12.2019 09:00:00 16,7 11,8 32 17 74 40 WNW 1003,1 18 0 0,0
13.12.2019 08:00:00 16,3 11,2 38 21 68 37 WNW 1002,1 20 0 0,0
13.12.2019 07:00:00 15,9 11,1 34 18 70 38 W 1003,2 20 0 -
13.12.2019 06:00:00 15,6 10,8 26 14 54 29 WNW 1003,5 17 0 0,0
13.12.2019 05:00:00 15,5 10,6 27 14 59 32 WNW 1004,2 17 0 0,0
13.12.2019 04:00:00 15,4 10,4 28 15 64 34 W 1004,5 20 0 0,0
13.12.2019 03:00:00 15,3 9,8 28 15 58 31 WNW 1005,1 20 0 0,0
13.12.2019 02:00:00 15,1 9,2 28 15 55 30 W 1005,3 20 0 0,0
13.12.2019 01:00:00 14,4 9,0 29 16 46 25 W 1006,4 20 0 -
13.12.2019 00:00:00 13,8 8,4 20 11 35 19 W 1007,0 20 0 0,0
12.12.2019 23:00:00 14,0 8,4 22 12 38 20 W 1007,6 20 0 0,0
12.12.2019 22:00:00 13,8 8,3 17 9 35 19 W 1008,3 20 0 0,0
12.12.2019 21:00:00 13,7 8,1 21 11 34 18 W 1008,8 20 0 0,0
12.12.2019 20:00:00 13,5 8,0 24 13 38 20 W 1009,4 20 0 0,0
12.12.2019 19:00:00 12,9 8,0 18 10 36 19 W 1010,1 20 0 -
12.12.2019 18:00:00 13,1 8,4 19 11 32 17 W 1010,5 20 0 0,0
12.12.2019 17:00:00 13,6 8,4 19 10 33 18 W 1011,5 20 0 0,0
12.12.2019 16:00:00 14,3 8,7 14 7 26 14 W 1012,0 20 0 0,0
12.12.2019 15:00:00 15,1 8,4 14 8 35 19 W 1012,5 20 36 0,0
12.12.2019 14:00:00 16,1 7,8 16 9 40 22 W 1013,4 20 60 0,0
12.12.2019 13:00:00 16,2 7,4 18 10 40 22 W 1014,5 20 49 -
12.12.2019 12:00:00 16,1 5,9 15 8 35 19 W 1015,3 20 48 0,0
12.12.2019 11:00:00 14,9 6,7 14 8 26 14 W 1016,4 20 30 0,0
12.12.2019 10:00:00 13,0 5,1 13 7 26 14 W 1016,6 20 1 0,0
12.12.2019 09:00:00 12,8 5,0 14 8 32 18 WNW 1016,5 20 11 0,0
12.12.2019 08:00:00 11,9 5,1 8 4 24 13 WSW 1016,8 20 0 0,0
12.12.2019 07:00:00 12,2 5,3 15 8 24 13 SW 1016,1 20 0 -
12.12.2019 06:00:00 11,7 5,1 12 6 24 13 W 1016,3 20 0 0,0
12.12.2019 05:00:00 11,3 6,1 12 7 21 12 SW 1016,3 20 0 0,0
12.12.2019 04:00:00 11,3 5,8 14 8 21 12 WSW 1017,2 20 0 0,0
12.12.2019 03:00:00 10,2 5,8 4 2 17 9 W 1017,9 18 0 0,0
12.12.2019 02:00:00 11,2 7,1 9 5 18 10 WNW 1017,8 18 0 0,0
12.12.2019 01:00:00 11,5 8,0 9 5 19 11 WNW 1018,4 18 0 -
12.12.2019 00:00:00 12,2 7,8 7 4 11 6 NNW 1018,4 20 0 0,0
11.12.2019 23:00:00 12,4 8,1 9 5 32 17 N 1018,4 20 0 0,0
11.12.2019 22:00:00 12,9 8,4 16 9 33 18 NNE 1017,8 20 0 0,0
11.12.2019 21:00:00 12,8 8,1 11 6 25 13 N 1017,2 20 0 0,0
11.12.2019 20:00:00 13,1 7,3 11 6 26 14 NNE 1016,2 20 0 0,0
11.12.2019 19:00:00 14,6 8,1 14 8 28 15 NNW 1015,6 20 0 -
11.12.2019 18:00:00 14,6 8,3 16 8 32 18 NW 1014,6 20 0 0,0
11.12.2019 17:00:00 15,5 8,7 12 7 25 14 W 1014,2 20 21 0,0
11.12.2019 16:00:00 16,3 11,2 13 7 29 16 W 1014,3 20 30 0,0
11.12.2019 15:00:00 16,4 11,6 17 9 32 18 W 1014,6 20 43 0,0
11.12.2019 14:00:00 17,1 11,1 18 10 32 18 W 1015,0 20 60 0,0
11.12.2019 13:00:00 16,9 11,6 20 11 31 17 W 1016,3 20 46 -
11.12.2019 12:00:00 16,4 11,6 16 9 29 15 W 1017,9 20 55 0,0
11.12.2019 11:00:00 15,1 11,3 10 5 25 13 WSW 1018,6 20 50 0,0
11.12.2019 10:00:00 14,3 10,9 8 4 17 9 WSW 1018,9 20 47 0,0
11.12.2019 09:00:00 11,2 9,2 10 5 13 7 W 1019,1 20 29 0,0
11.12.2019 08:00:00 9,3 7,8 4 2 10 5 WSW 1019,1 20 0 0,0
11.12.2019 07:00:00 8,6 7,0 3 2 7 4 NW 1019,7 20 0 -
11.12.2019 06:00:00 10,0 7,7 6 3 12 6 W 1020,2 20 0 0,0
11.12.2019 05:00:00 8,9 7,0 5 3 9 5 NW 1020,7 20 0 0,0
11.12.2019 04:00:00 9,2 7,3 4 2 10 5 NNW 1021,2 20 0 0,0
11.12.2019 03:00:00 9,4 7,3 8 4 11 6 NNW 1021,6 20 0 0,0
11.12.2019 02:00:00 9,6 6,5 9 5 15 8 NW 1022,1 20 0 0,0
11.12.2019 01:00:00 9,8 6,5 11 6 15 8 NNW 1022,6 20 0 -
11.12.2019 00:00:00 9,1 5,0 8 4 12 6 NNW 1022,8 20 0 0,0
10.12.2019 23:00:00 9,3 5,0 9 5 11 6 N 1022,6 20 0 0,0
10.12.2019 22:00:00 9,6 4,6 9 5 16 9 N 1022,6 20 0 0,0
10.12.2019 21:00:00 10,9 6,4 9 5 16 9 NNW 1022,6 20 0 0,0
10.12.2019 20:00:00 11,7 7,0 6 3 14 8 NNW 1022,7 20 0 0,0
10.12.2019 19:00:00 11,6 7,3 6 3 16 8 NW 1022,6 20 0 -
10.12.2019 18:00:00 12,6 7,7 9 5 16 9 WNW 1022,4 20 5 0,0
10.12.2019 17:00:00 14,3 6,8 11 6 20 11 W 1022,5 20 58 0,0
10.12.2019 16:00:00 15,0 2,1 9 5 21 12 N 1022,2 20 60 0,0
10.12.2019 15:00:00 15,3 1,5 12 6 36 19 NNE 1022,3 20 60 0,0
10.12.2019 14:00:00 15,1 -0,3 31 17 50 27 N 1022,7 20 60 0,0
10.12.2019 13:00:00 15,2 2,1 20 11 50 27 NNE 1023,5 20 60 -
10.12.2019 12:00:00 14,5 2,5 28 15 56 31 N 1024,3 20 60 0,0
10.12.2019 11:00:00 14,3 3,0 23 12 53 29 N 1024,7 20 60 0,0
10.12.2019 10:00:00 13,3 6,4 14 7 29 15 NNE 1024,7 20 60 0,0
10.12.2019 09:00:00 11,1 7,0 9 5 19 11 N 1024,0 20 11 0,0
10.12.2019 08:00:00 10,1 6,2 13 7 19 10 N 1023,6 20 0 0,0
10.12.2019 07:00:00 10,4 6,7 7 4 14 8 NNW 1023,0 20 0 -
10.12.2019 06:00:00 10,9 6,4 9 5 19 10 N 1022,3 20 0 0,0
10.12.2019 05:00:00 11,8 6,7 11 6 24 13 NNW 1022,5 20 0 0,0
10.12.2019 04:00:00 11,6 5,9 9 5 24 13 NW 1022,3 20 0 0,0
10.12.2019 03:00:00 12,1 6,8 12 6 29 16 NNW 1021,9 20 0 0,0
10.12.2019 02:00:00 11,7 6,2 13 7 22 12 NW 1022,4 20 0 0,0
10.12.2019 01:00:00 10,6 5,9 7 4 13 7 NNW 1022,5 20 0 -
10.12.2019 00:00:00 10,2 6,1 5 3 14 7 NNW 1022,5 20 0 0,0
09.12.2019 23:00:00 12,7 7,1 10 5 21 11 N 1022,2 20 0 0,0
09.12.2019 22:00:00 13,4 6,7 9 5 24 13 NNW 1022,0 20 0 0,0
09.12.2019 21:00:00 12,9 6,2 8 4 15 8 NNW 1021,5 20 0 0,0
09.12.2019 20:00:00 13,5 6,4 10 5 16 9 NW 1021,2 20 0 0,0
09.12.2019 19:00:00 13,8 5,6 6 4 15 8 ENE 1020,6 20 0 -
09.12.2019 18:00:00 14,1 5,1 4 2 23 12 N 1020,3 20 4 0,0
09.12.2019 17:00:00 15,2 5,9 8 4 47 25 NE 1019,9 20 60 0,0
09.12.2019 16:00:00 16,3 6,4 18 10 46 25 NNW 1019,2 20 60 0,0
09.12.2019 15:00:00 16,9 5,8 24 13 49 27 NW 1019,0 20 60 0,0
09.12.2019 14:00:00 17,2 4,8 27 15 59 32 NW 1019,2 20 60 0,0
09.12.2019 13:00:00 18,0 4,8 20 11 49 26 NW 1019,2 20 60 -
09.12.2019 12:00:00 18,1 5,9 9 5 23 12 W 1020,4 20 60 0,0
09.12.2019 11:00:00 16,4 7,0 10 5 24 13 NNW 1021,2 20 60 0,0
09.12.2019 10:00:00 15,4 10,4 5 3 15 8 W 1019,9 20 60 0,0
09.12.2019 09:00:00 13,2 9,4 12 6 21 11 NNW 1020,0 20 48 0,0
09.12.2019 08:00:00 12,3 8,9 9 5 15 8 N 1019,6 20 0 0,0
09.12.2019 07:00:00 13,1 9,7 9 5 26 14 W 1019,7 20 0 -
09.12.2019 06:00:00 13,1 10,6 11 6 22 12 WNW 1020,0 20 0 0,0
09.12.2019 05:00:00 13,9 12,3 10 6 17 9 WSW 1019,1 20 0 0,0
09.12.2019 04:00:00 13,9 11,9 5 3 12 6 NNE 1020,0 20 0 0,0
09.12.2019 03:00:00 14,8 11,9 4 2 22 12 NE 1020,4 20 0 0,0
09.12.2019 02:00:00 14,4 11,9 6 4 18 10 N 1020,3 20 0 0,0
09.12.2019 01:00:00 14,3 11,8 12 6 23 12 W 1020,3 20 0 -
09.12.2019 00:00:00 13,3 11,3 16 8 23 12 W 1020,7 20 0 0,0

tt = temperature
td = dewpoint
ff = wind speed
fx = gusts
dd = wind direction
ppp = reduced air pressure
vv = visibility
sd = sunshine duration
rr = precipitation

Next stations